Theta_e
302 302 301 300 300 301 302 302 299 299 300 300 300 299 299 299 298 298 298 298 298 298 298 298 298 298 297 297 298 298 298 299 299 299 298 299 299 300 299 299 299 298 298 297 297 298 298 298 297 298 298 297 296 296 296 296 295 295 295 295 295 294 293 294 294 293 293 292 291
302 301 299 297 297 300 302 301 300 300 300 301 300 300 299 299 299 299 299 298 299 299 299 299 298 297 298 298 298 299 300 300 300 300 300 300 300 299 299 298 298 297 297 297 297 298 298 298 297 297 298 297 297 296 296 295 295 295 294 294 295 294 294 293 293 292 292 293 292
302 301 300 301 301 302 302 301 300 300 299 299 300 300 300 299 299 299 299 299 298 299 299 299 298 298 299 300 300 301 301 301 301 300 300 299 299 298 298 298 298 298 297 298 298 298 299 298 297 297 297 298 296 295 295 295 295 295 294 294 296 296 296 296 294 293 293 294 293
301 301 301 301 301 300 300 300 299 299 299 299 299 299 299 299 299 299 299 298 299 299 299 300 300 300 300 301 301 301 301 300 299 299 298 298 297 298 298 299 299 299 299 298 298 298 298 297 297 297 297 295 294 294 295 295 295 295 295 297 297 297 297 297 295 295 296 295 294
300 300 300 300 299 299 299 298 298 298 299 299 300 300 300 300 300 300 300 299 299 300 300 300 301 301 300 300 300 299 299 298 296 297 297 297 297 298 298 299 299 299 298 297 296 296 296 296 297 296 295 294 295 295 294 295 295 295 296 297 298 298 297 296 296 295 295 294 293
298 298 298 298 298 298 298 298 298 298 298 298 299 300 300 302 302 302 301 300 299 300 300 299 298 298 298 298 298 297 297 297 297 297 297 297 297 297 297 297 297 297 297 296 295 295 295 295 296 295 295 295 294 294 295 295 296 296 296 296 296 296 296 295 295 295 294 293 292
298 297 297 298 297 297 297 297 297 297 297 297 298 299 300 301 301 300 300 299 299 298 298 296 296 296 296 296 296 295 296 296 296 296 295 295 295 295 296 295 295 295 295 294 294 294 293 293 294 294 294 294 295 295 294 294 294 294 294 293 293 294 294 294 294 295 294 293 292
298 298 298 298 297 297 296 296 296 296 296 297 297 297 298 298 298 298 298 297 297 296 295 295 294 294 294 295 295 295 295 295 295 294 294 294 294 295 295 295 294 294 294 293 293 292 292 292 293 293 292 293 293 293 292 292 291 291 290 290 291 292 293 295 295 295 295 294 294
298 298 298 297 297 297 296 296 296 296 296 296 295 296 296 295 295 295 295 295 294 294 293 293 293 293 293 294 294 294 294 294 293 293 293 293 293 294 294 294 293 293 293 293 292 292 292 292 292 292 291 291 291 290 290 290 289 289 289 289 290 291 291 293 293 293 293 293 292
298 298 298 297 297 296 296 296 296 295 295 295 295 295 294 293 293 293 293 293 292 292 293 292 293 293 293 293 293 293 293 293 293 293 292 292 292 292 292 292 292 292 292 292 292 291 291 291 291 291 291 290 289 289 289 289 288 288 288 289 289 289 290 291 292 292 291 291 290
297 297 297 297 297 296 296 296 295 295 295 295 294 294 293 292 292 292 292 292 292 292 292 292 293 293 293 293 293 293 292 292 292 292 291 291 291 291 291 290 290 290 290 290 290 290 290 290 290 289 289 289 288 288 288 288 288 287 287 288 289 289 290 290 291 290 290 289 289
297 297 297 297 296 296 295 295 295 295 294 293 293 292 292 291 291 291 291 292 292 292 292 292 293 293 293 292 292 291 291 291 291 290 290 290 290 290 289 289 289 289 289 289 289 289 289 288 288 287 287 287 287 287 287 287 287 288 288 289 289 289 289 289 289 289 289 289 289
297 297 296 296 296 295 295 294 294 294 293 292 292 291 291 291 291 291 291 292 292 292 292 292 292 292 292 291 291 291 290 290 289 289 289 288 289 289 289 289 288 288 288 288 288 288 287 287 287 286 286 286 286 286 287 287 287 287 287 286 286 286 286 287 287 288 288 288 288
297 296 296 295 295 294 294 294 293 293 292 291 291 291 291 291 291 291 292 292 292 291 291 291 291 291 291 290 290 289 289 288 288 288 287 288 288 288 288 288 287 287 287 287 287 287 286 286 286 285 285 285 286 286 286 286 286 285 285 285 285 285 285 285 286 286 287 287 287
296 296 296 296 295 295 294 293 293 293 292 292 292 292 292 292 292 292 292 292 291 291 291 290 290 290 290 290 289 288 287 287 287 287 286 287 287 287 287 287 286 286 286 286 286 286 286 285 285 285 285 285 285 285 285 285 285 285 285 285 285 285 285 285 285 285 286 286 286
296 296 296 296 296 296 295 295 295 295 295 295 294 294 294 294 294 294 293 292 291 290 289 289 289 289 288 288 288 287 286 286 286 286 286 286 286 286 286 286 285 285 285 285 285 285 285 284 284 284 285 284 284 284 284 284 284 284 284 284 284 284 284 284 284 284 284 284 284
296 296 296 296 297 297 297 298 298 298 298 298 297 297 297 297 296 295 293 292 290 289 288 288 288 287 287 286 286 286 286 285 285 285 285 285 286 285 285 285 285 285 284 284 284 284 283 284 284 284 284 284 284 284 283 283 283 283 283 283 283 283 283 283 283 283 283 283 283
294 295 295 295 296 296 297 298 299 299 299 299 299 299 298 298 297 296 293 291 290 288 288 287 287 286 286 285 285 285 285 285 285 285 285 285 285 285 285 285 284 284 284 283 283 283 283 284 284 284 284 284 283 283 283 283 282 282 282 282 282 282 282 282 282 282 283 283 283
293 293 293 293 294 294 295 296 297 298 298 299 298 298 298 298 298 296 293 291 290 289 288 288 287 286 285 285 284 284 284 285 285 285 285 285 285 285 284 284 284 284 284 283 283 284 284 284 284 284 284 284 283 283 282 282 281 281 281 280 281 281 281 281 281 282 282 282 282
292 292 292 292 293 293 294 294 295 296 297 298 298 298 298 298 298 295 292 290 290 289 289 288 287 286 285 285 284 284 284 285 285 285 285 285 284 284 284 284 284 284 284 284 284 284 284 284 284 284 283 283 283 282 281 281 280 279 279 279 279 280 280 280 281 281 281 282 282
291 291 292 292 292 292 293 293 294 294 295 295 297 297 297 298 296 294 292 290 290 290 289 289 288 287 286 285 285 285 285 285 285 285 285 285 285 285 285 285 284 284 284 284 284 284 284 283 283 283 283 283 282 281 280 279 278 278 278 278 279 279 279 280 280 280 281 281 281
291 291 291 292 292 292 292 293 293 293 293 294 295 296 297 297 295 293 292 291 291 290 290 289 288 287 287 286 285 285 285 285 285 285 285 285 285 285 285 285 284 284 283 283 283 282 282 283 283 283 282 282 281 280 279 278 278 277 277 278 278 278 279 279 279 280 280 280 281
291 291 291 292 292 292 292 292 292 292 292 292 293 295 296 296 293 292 291 291 291 291 290 289 289 288 287 286 286 286 286 285 285 285 285 285 285 284 284 284 284 283 282 281 281 281 281 282 282 282 282 281 279 278 278 278 278 277 277 277 277 278 278 278 279 279 279 280 280
291 291 292 292 292 292 292 292 292 292 292 292 293 294 294 293 292 291 291 291 292 291 290 290 289 289 288 287 287 286 286 285 284 284 284 283 283 283 282 282 282 281 281 281 283 284 284 282 282 281 281 279 278 278 278 278 277 277 277 277 277 277 277 278 278 278 279 279 280
291 291 292 292 292 292 292 292 292 292 293 293 293 293 293 291 291 290 291 291 291 291 290 290 289 288 287 287 286 286 285 284 284 283 283 282 282 281 281 281 281 281 282 283 287 289 288 285 283 281 280 279 278 278 278 278 278 277 277 277 277 277 277 277 277 278 278 279 279
291 291 291 291 291 291 291 292 292 293 293 294 294 293 292 291 291 291 291 291 291 290 290 289 288 287 286 285 285 285 284 283 283 283 282 282 281 280 280 280 281 281 283 286 288 289 289 288 286 283 280 278 278 278 277 277 277 277 277 277 276 276 277 277 277 277 278 279 279
291 291 290 291 291 291 291 292 293 293 293 294 294 293 292 292 292 292 292 291 291 290 289 287 287 286 285 285 284 284 283 283 283 283 282 282 281 281 280 280 281 282 284 287 288 288 288 288 287 285 282 278 278 277 277 277 277 277 277 276 276 276 276 276 277 277 278 278 278
290 290 290 290 291 291 292 293 293 293 293 292 293 293 293 292 292 291 291 291 290 289 288 287 287 286 285 285 285 284 284 283 283 283 283 282 282 281 281 280 280 282 284 288 289 288 288 287 287 286 283 280 278 277 277 276 276 276 276 276 276 276 276 276 277 277 278 278 278
290 290 290 291 291 292 293 293 293 292 292 292 292 292 292 291 291 291 291 291 289 288 287 287 287 286 286 286 285 284 284 284 283 283 283 282 281 281 280 280 281 282 285 289 288 288 288 287 287 286 285 283 279 276 276 275 275 275 275 276 276 276 276 276 277 277 278 278 278
290 290 291 292 293 293 293 292 293 292 292 292 292 292 291 291 291 291 291 290 289 288 287 287 287 286 286 285 285 284 284 284 283 283 283 282 281 280 280 280 281 283 285 288 288 288 287 287 287 286 285 285 280 277 275 275 275 275 275 276 276 276 276 276 276 277 277 278 278
290 291 292 293 293 293 293 292 292 292 292 292 292 291 291 291 291 291 290 289 288 288 287 287 286 286 285 285 285 284 284 284 284 283 282 282 281 281 280 280 280 282 285 288 288 288 287 287 287 286 286 285 281 278 276 275 275 275 275 275 275 275 276 276 276 276 277 277 278
291 292 293 293 293 293 293 293 292 292 292 292 292 292 291 291 291 290 290 289 288 288 287 287 286 285 285 284 284 284 284 284 284 283 283 282 281 281 280 280 280 282 284 288 288 287 287 287 287 286 286 286 282 278 276 275 275 275 275 275 275 275 275 276 276 276 276 277 277
291 292 292 292 292 292 292 292 292 292 292 291 292 291 291 291 290 290 289 289 288 287 286 286 285 284 284 284 284 284 284 284 283 283 283 282 281 281 280 280 280 282 286 288 287 287 287 287 287 286 286 286 281 278 276 275 275 275 275 275 275 275 275 275 276 276 276 276 277
292 292 292 292 292 292 292 292 291 291 291 291 291 290 290 289 289 289 288 288 287 286 285 285 285 284 284 285 285 284 284 284 284 283 283 282 281 281 280 280 280 283 287 287 287 287 287 287 286 286 286 285 281 278 276 275 275 275 275 275 275 275 275 275 275 275 276 276 276
292 292 292 292 292 292 291 291 291 291 290 289 289 289 289 289 289 288 288 286 285 285 285 285 285 285 285 285 285 285 285 284 284 283 282 281 280 280 280 279 280 283 286 287 287 287 287 287 287 286 286 284 280 277 276 275 275 275 275 274 274 275 275 275 275 275 275 276 276
293 293 293 293 292 291 291 290 290 289 288 288 288 289 289 289 288 288 286 285 285 284 285 285 285 285 285 285 285 285 285 284 283 282 281 280 280 280 279 279 279 282 285 287 287 287 287 287 287 286 286 283 279 277 276 275 276 275 275 275 275 275 275 275 275 275 275 275 276
293 293 292 292 291 291 290 289 288 288 287 287 288 288 288 288 287 286 285 284 285 284 284 284 285 285 285 285 285 285 284 284 283 282 281 280 279 279 279 279 279 280 283 285 287 287 287 287 287 287 285 282 278 277 276 276 276 276 276 275 275 274 274 274 275 275 275 275 276
293 292 292 291 290 290 289 288 287 287 286 287 287 287 287 286 285 285 285 284 285 284 284 284 285 285 285 285 284 284 283 283 282 281 280 279 279 279 279 279 279 280 281 284 286 287 287 288 288 287 285 281 278 277 277 277 277 276 276 275 275 274 274 274 274 275 275 275 277
292 291 290 290 289 289 288 288 287 286 286 286 285 285 285 285 284 285 285 285 285 285 285 285 285 286 285 285 284 283 282 281 281 280 279 279 279 279 280 279 279 279 281 284 286 287 287 287 287 286 284 280 277 276 277 277 277 276 275 275 275 275 275 275 275 276 276 276 279
291 290 290 289 289 288 288 287 286 287 286 285 285 284 284 285 285 285 286 285 286 286 286 286 286 285 285 284 282 281 280 280 280 279 279 278 279 281 281 279 279 279 280 283 286 287 287 286 286 285 284 280 277 276 277 278 277 276 276 276 276 276 276 276 276 276 277 276 278
290 290 290 289 289 288 287 286 286 286 286 286 285 285 285 285 285 286 286 286 286 287 287 287 286 285 283 282 281 280 279 279 279 279 278 278 279 281 281 279 278 279 280 282 285 286 286 285 285 284 283 280 278 277 278 278 278 277 277 277 277 277 276 276 276 276 276 276 277
Wind_Speed
3 2 0 1 1 1 1 1 1 1 1 1 1 1 1 1 2 2 2 1 2 2 2 2 2 2 3 4 4 5 6 6 7 7 7 7 7 7 6 4 3 2 1 1 2 2 3 4 3 3 3 2 2 3 3 3 3 4 4 4 4 3 3 4 4 4 4 4 4
6 4 3 3 3 3 3 3 3 3 3 2 2 2 2 2 2 2 2 2 2 2 2 2 3 4 5 7 8 8 9 10 10 10 9 9 8 6 5 3 2 2 2 3 3 4 4 5 4 4 3 3 4 4 4 4 4 4 5 5 4 3 3 4 4 4 4 4 3
7 6 5 5 5 5 4 4 4 5 5 4 4 3 4 4 3 3 3 3 2 3 3 4 4 6 7 9 9 9 10 10 10 10 9 8 6 5 4 3 4 5 5 5 5 6 6 5 4 4 4 3 4 4 3 4 4 4 4 4 3 3 3 4 4 4 3 3 3
7 7 6 6 7 6 5 4 5 5 5 4 4 4 4 4 4 4 3 3 3 4 4 5 6 6 6 7 8 8 8 8 7 7 7 6 6 5 6 6 7 8 7 7 8 7 7 6 4 3 3 3 3 3 2 3 3 3 3 3 3 3 3 4 4 4 4 3 3
7 7 6 6 6 5 4 4 4 4 4 3 3 4 4 4 4 4 4 4 4 4 4 5 5 5 5 5 6 6 6 7 7 7 7 8 8 9 9 9 9 9 8 8 9 8 7 5 4 3 2 2 2 2 2 3 3 3 3 3 3 3 3 3 3 4 4 3 3
6 6 6 5 5 4 4 3 3 3 3 3 3 3 3 3 4 4 5 5 5 5 5 5 4 4 4 4 5 6 7 8 9 9 10 11 10 10 11 11 11 10 9 9 9 8 7 5 3 2 2 2 2 2 3 3 4 4 4 4 4 4 4 4 4 4 4 4 4
6 6 6 5 5 5 4 4 3 3 3 3 3 4 4 4 4 4 5 5 4 4 4 3 3 4 5 6 7 8 9 9 10 11 11 10 10 10 10 10 10 10 9 8 8 7 6 5 3 3 3 3 3 3 4 5 5 5 5 4 4 4 4 5 5 5 5 6 6
6 6 6 6 6 6 5 5 5 4 4 3 4 4 5 4 4 4 4 3 3 2 2 3 4 5 6 7 8 8 8 9 9 9 9 8 9 9 9 9 9 9 8 8 7 7 6 4 4 3 3 3 3 4 5 6 6 5 5 5 4 4 4 5 5 6 7 8 9
6 6 6 6 6 6 6 6 6 5 5 5 5 5 4 4 3 3 2 2 1 2 3 4 5 7 7 8 8 7 7 8 8 8 8 8 8 9 8 8 8 8 7 7 6 6 6 4 4 4 4 4 4 4 5 6 6 6 5 4 4 4 4 4 6 6 7 8 9
7 7 7 7 7 7 7 7 6 6 5 6 5 5 4 3 3 2 1 0 1 2 4 4 5 6 7 7 7 7 6 6 7 7 7 8 8 8 8 7 7 7 7 6 6 6 5 4 4 4 4 4 5 5 5 6 6 6 5 4 4 4 4 4 4 5 5 5 6
7 6 6 6 7 7 7 6 6 6 5 6 5 5 4 3 2 2 1 1 2 3 4 4 5 6 6 5 5 5 6 6 6 6 7 7 7 7 7 6 6 6 6 6 5 5 4 4 4 5 5 5 5 5 6 6 6 5 5 4 4 5 5 4 3 3 3 3 4
6 6 6 6 7 7 7 6 6 5 5 6 5 4 3 3 2 1 1 3 3 4 4 4 5 5 5 4 5 5 5 6 6 6 6 7 6 6 6 6 6 6 6 6 5 4 4 4 4 4 5 5 4 4 5 6 6 6 6 6 5 5 5 5 5 4 3 3 4
6 6 6 7 7 7 7 7 6 5 5 5 5 4 3 2 1 0 2 4 4 3 3 4 5 5 5 5 5 5 6 6 6 6 6 5 6 6 6 6 6 6 5 5 4 4 3 3 3 3 4 4 4 4 4 5 5 5 6 6 6 6 6 6 6 6 5 4 5
7 7 7 7 7 7 6 6 6 6 5 6 5 4 2 1 1 2 3 4 4 3 3 4 4 5 5 5 6 6 6 6 6 5 5 5 5 5 5 5 5 5 4 4 3 3 3 2 2 2 2 3 3 3 4 4 4 5 5 6 6 7 7 7 7 7 7 7 7
10 9 9 8 8 7 6 6 6 6 7 8 7 6 4 3 3 4 4 4 3 3 3 4 4 5 5 6 6 6 6 5 5 4 4 4 4 4 4 4 4 4 3 3 3 2 2 2 1 1 1 1 2 2 3 3 3 4 4 5 6 7 7 8 8 8 8 8 8
12 11 11 10 9 9 8 7 7 7 8 9 10 9 8 7 4 4 4 4 3 2 3 4 4 4 5 5 6 6 5 4 4 3 3 2 2 2 3 3 3 3 3 3 2 2 2 1 1 0 0 0 1 1 2 2 3 3 4 5 5 6 7 8 8 9 9 9 9
13 13 13 13 12 12 12 10 9 8 8 9 10 10 9 9 6 3 2 2 2 2 3 4 4 4 4 4 4 4 3 3 2 2 1 1 1 1 2 2 3 3 3 2 2 2 2 2 2 1 1 1 1 1 2 2 2 3 3 4 5 5 6 7 7 8 9 10 10
15 15 16 16 15 15 14 13 11 10 9 9 8 8 8 8 6 4 1 1 1 2 2 3 3 3 3 3 3 2 2 2 1 1 1 1 1 1 2 3 3 3 3 3 3 3 4 4 3 3 2 2 2 2 2 2 2 2 3 3 4 5 5 6 7 7 8 9 10
16 17 17 17 17 16 16 15 14 12 11 9 8 6 5 6 7 5 3 2 1 2 2 3 3 3 2 2 1 1 1 2 2 2 2 2 2 2 3 4 4 4 4 4 4 4 5 5 4 4 3 3 3 2 2 2 2 2 2 3 4 4 5 6 6 7 7 9 10
16 17 17 17 17 17 17 16 16 15 14 12 9 7 5 4 6 5 4 2 3 3 4 4 3 2 1 1 0 1 2 2 3 3 3 3 3 3 4 5 5 5 5 5 5 5 5 5 5 4 4 3 3 3 2 2 1 2 2 2 3 4 5 6 6 7 7 8 9
16 16 17 17 17 17 17 17 17 17 16 16 12 8 5 4 4 2 2 2 3 4 4 4 3 2 1 1 2 2 3 3 3 3 3 3 3 4 5 6 6 5 5 5 5 5 5 5 5 4 4 4 3 3 2 1 1 2 2 3 3 4 5 6 6 7 7 8 9
16 16 16 16 17 17 17 17 16 17 17 17 12 7 4 3 1 1 2 1 2 3 3 3 3 3 3 3 3 3 3 3 3 3 3 3 4 5 5 5 5 4 4 3 3 3 4 4 4 4 3 3 2 1 1 0 1 2 3 3 4 5 5 6 6 7 7 8 9
15 15 15 15 15 16 16 16 16 16 15 14 10 6 3 2 1 3 3 2 1 2 2 3 5 5 5 5 4 4 4 3 3 3 3 3 3 4 4 3 2 2 2 2 2 2 2 3 3 2 2 1 1 1 1 1 1 2 3 4 5 5 6 6 6 7 7 8 9
15 14 14 13 14 15 16 16 15 14 13 11 8 6 4 1 2 4 4 4 2 2 3 5 6 7 6 5 4 4 4 3 3 3 3 3 2 2 2 1 1 1 1 1 1 1 1 1 1 1 1 1 1 1 1 1 1 2 3 4 5 6 6 7 7 7 8 8 9
14 14 14 14 15 15 16 15 14 12 10 8 7 5 4 2 3 4 5 5 3 1 4 7 7 6 5 4 3 3 3 2 2 2 2 3 2 2 1 0 0 1 1 0 1 2 2 2 2 1 1 1 1 1 1 1 1 2 3 4 5 6 6 7 7 8 8 8 9
15 15 16 16 16 17 16 15 12 9 7 7 6 6 5 5 5 5 5 4 1 3 6 8 7 5 3 2 2 1 1 1 1 1 2 2 2 2 1 1 0 0 0 1 2 3 3 4 4 3 2 2 1 1 1 1 2 2 3 4 4 5 6 7 7 8 8 9 9
16 17 17 17 18 18 17 13 9 6 5 6 7 8 8 8 7 5 4 2 3 5 7 7 5 4 3 2 1 1 2 2 2 2 1 1 1 1 1 1 1 0 1 2 3 3 4 4 4 4 3 2 2 1 0 1 2 2 3 3 4 4 5 6 7 8 9 9 10
17 18 18 18 18 18 15 11 7 5 5 5 8 9 10 8 6 2 1 4 5 5 5 4 4 3 2 1 1 2 2 2 2 2 1 0 0 0 1 1 1 0 2 3 4 4 4 4 4 4 4 3 2 1 1 1 2 2 3 3 3 4 4 5 6 7 8 9 10
18 18 18 18 18 17 14 9 7 5 5 7 9 10 9 6 2 2 4 5 5 4 4 4 3 2 2 2 2 2 2 2 2 1 1 1 1 1 1 2 2 0 2 4 4 5 5 5 4 4 4 3 2 1 1 1 2 2 2 3 3 3 4 4 5 6 7 8 9
18 18 17 17 17 15 12 9 8 7 6 7 8 7 5 1 3 5 5 5 4 4 4 3 2 2 2 3 2 2 2 2 2 2 2 2 2 2 2 2 3 1 2 4 4 5 5 5 5 5 4 4 3 2 2 2 2 2 3 3 3 3 3 4 4 5 6 7 8
18 17 16 16 15 12 10 8 7 6 6 5 4 3 1 3 4 4 4 4 4 4 3 2 2 3 3 3 3 3 3 3 3 3 2 2 2 2 2 3 3 2 1 3 4 5 5 5 5 5 5 5 3 3 2 3 3 3 3 3 3 3 3 3 3 4 5 6 7
17 16 14 14 12 10 8 6 4 3 3 2 1 1 2 3 3 3 3 3 3 3 3 2 3 3 4 4 4 4 4 4 4 3 3 2 2 2 2 3 3 2 1 1 4 6 6 6 6 7 7 6 5 4 4 4 4 4 3 3 3 2 2 2 2 3 5 6 6
16 14 12 11 9 8 6 4 2 1 0 1 1 2 2 3 3 3 3 3 2 2 2 3 3 4 4 5 5 5 5 5 4 3 3 2 2 2 3 3 3 3 2 1 4 6 7 7 8 8 8 8 6 5 4 4 4 3 3 3 2 2 1 1 2 2 4 5 5
16 12 10 8 8 7 6 5 4 3 2 2 2 2 2 3 3 3 3 3 2 2 2 3 3 4 4 5 5 5 5 5 4 3 3 2 3 3 3 3 3 3 3 1 3 6 7 9 9 9 9 9 7 5 4 4 3 3 3 2 2 2 1 1 1 2 3 4 4
15 12 10 8 8 7 7 7 6 5 3 2 2 2 2 3 3 4 4 3 3 3 3 4 4 4 5 4 4 5 5 5 4 4 3 3 3 4 4 3 3 4 5 4 3 5 7 9 10 10 10 8 6 4 4 4 3 3 3 2 2 2 2 1 2 2 2 3 3
14 12 11 9 8 7 6 6 6 5 4 3 3 3 3 3 3 3 3 3 3 4 4 5 5 5 5 5 5 4 4 5 4 4 3 3 4 4 4 4 4 5 7 7 6 6 7 9 10 10 10 8 5 4 3 3 3 3 2 2 2 2 2 2 2 2 2 3 3
13 12 11 10 8 7 6 6 6 6 5 5 4 4 4 4 4 3 3 3 4 4 5 5 5 5 5 5 5 4 4 4 4 4 4 4 4 4 4 4 5 6 7 8 9 9 9 9 9 9 8 5 4 3 3 2 2 2 2 2 3 3 3 2 2 2 3 3 4
12 11 10 9 8 8 7 6 6 6 6 6 5 4 4 4 4 4 4 4 4 5 5 5 5 5 5 5 5 4 4 4 4 4 4 4 4 4 4 5 5 6 7 9 10 10 10 10 11 10 7 2 2 2 2 2 2 2 2 2 3 3 3 2 2 3 3 4 7
10 9 9 8 8 7 7 7 7 7 6 6 5 5 5 4 4 4 4 4 4 4 5 5 5 5 5 4 4 4 5 5 4 4 4 4 5 5 5 5 6 7 8 10 11 10 10 10 12 12 9 3 1 1 1 1 2 2 2 2 3 3 3 3 3 4 5 6 11
9 8 8 8 7 7 7 7 7 7 7 6 6 6 6 5 5 5 5 4 4 5 5 5 5 5 4 4 4 5 5 6 6 5 5 5 6 7 8 7 7 8 9 11 10 10 10 13 13 12 9 4 2 1 1 2 2 3 3 3 3 4 4 4 4 5 5 7 10
8 8 8 7 7 7 7 8 8 8 7 7 7 6 6 6 5 5 5 5 5 5 5 5 4 4 4 4 4 5 6 6 6 6 6 6 7 8 9 8 8 9 9 10 9 10 12 13 13 12 10 6 4 3 3 3 3 4 5 5 5 4 5 5 5 5 6 7 7
Wind_Direction
333 332 61 97 94 89 75 47 38 37 40 42 19 7 7 18 360 345 339 351 343 331 322 318 316 320 328 336 342 344 344 343 340 336 330 324 319 315 312 306 301 302 312 338 8 25 31 31 30 28 26 27 22 17 14 16 12 9 6 4 357 349 341 329 315 303 290 277 268
355 360 18 36 38 39 36 28 23 20 21 24 22 16 10 10 2 354 349 347 341 338 339 341 343 346 346 345 344 341 337 331 325 319 314 310 308 307 307 307 319 339 357 3 17 29 35 34 34 31 27 24 23 18 14 13 12 9 6 2 358 353 347 337 322 310 301 293 291
18 19 22 27 31 33 33 30 27 24 22 18 16 13 11 7 3 358 351 343 345 350 353 351 348 346 343 338 331 326 320 314 311 309 308 309 313 319 330 345 356 359 358 357 11 24 34 35 37 35 31 25 24 19 12 6 11 9 3 355 355 353 342 323 315 313 314 311 304
30 31 31 33 35 36 35 32 28 26 22 17 12 9 6 1 356 350 343 338 344 348 345 339 333 329 324 317 311 309 310 313 317 320 325 333 342 350 358 6 9 7 5 9 20 27 32 34 39 39 35 29 27 21 11 3 8 4 355 345 345 339 326 309 306 308 310 307 297
29 30 32 32 32 31 30 31 29 25 21 16 8 360 351 343 336 330 326 323 324 323 319 316 313 310 308 308 315 326 339 349 355 360 3 6 9 12 16 22 27 29 30 31 29 27 26 29 34 36 34 32 32 22 9 3 3 357 349 342 339 332 320 308 305 304 302 297 290
20 20 20 22 20 18 16 16 18 17 13 11 358 343 329 316 308 302 300 298 302 307 312 316 321 328 338 350 5 15 19 20 21 21 21 19 19 19 22 27 32 35 35 34 30 26 23 22 20 15 13 21 22 15 10 8 4 358 352 347 343 337 331 323 316 310 303 293 287
15 12 9 7 5 3 359 357 357 357 358 358 343 324 309 296 289 284 284 290 305 320 333 351 7 18 26 32 35 34 31 28 26 24 22 20 20 20 22 25 28 29 30 30 27 23 18 15 9 3 1 9 10 8 9 11 9 5 359 353 350 348 345 337 332 326 318 310 304
8 4 359 356 355 353 350 348 347 345 342 336 322 307 296 290 287 286 293 309 327 350 16 36 42 45 46 46 42 38 34 30 26 23 21 20 19 20 22 23 23 22 21 22 21 16 11 7 4 360 359 3 3 2 4 9 11 10 6 358 356 357 357 353 351 347 343 339 339
357 352 348 346 345 344 341 338 335 330 323 315 305 296 289 285 286 295 307 325 352 39 54 55 52 52 51 50 45 41 37 33 28 24 20 19 18 18 19 21 19 17 15 14 12 9 5 2 358 356 356 360 358 358 2 9 10 10 8 3 359 359 0 0 359 358 357 355 354
348 343 340 338 334 331 328 324 319 314 309 303 298 293 288 281 281 281 278 224 77 66 61 58 56 56 54 52 48 45 42 39 32 26 21 20 18 18 18 19 17 15 12 9 7 5 2 1 356 355 356 359 357 358 3 10 10 8 6 3 357 353 352 354 358 360 359 356 348
336 332 328 325 319 316 313 310 306 302 298 294 292 290 286 278 270 254 221 123 77 67 63 64 64 63 60 56 53 49 46 43 37 30 24 20 18 17 17 17 16 13 10 6 4 3 3 2 358 357 357 358 359 2 5 9 7 4 359 354 348 342 337 334 334 336 334 327 318
320 316 312 308 305 304 303 300 297 294 290 286 284 281 276 268 255 232 135 87 79 74 71 71 71 71 68 65 59 54 50 47 42 36 29 22 19 17 15 15 13 10 6 2 2 3 4 3 2 0 359 359 3 5 5 5 1 356 349 342 336 330 323 318 316 311 305 296 294
306 303 301 298 297 297 297 296 293 291 288 284 280 274 268 264 248 145 86 77 81 81 79 76 77 77 75 71 65 60 55 50 46 41 35 27 21 16 13 10 7 3 360 356 358 1 3 3 5 6 4 3 5 4 3 0 355 348 341 334 329 324 319 315 312 308 301 293 288
300 297 294 292 293 294 296 297 299 302 303 300 293 289 286 293 14 62 65 64 71 77 81 79 77 77 76 73 69 65 61 56 51 46 40 32 23 16 10 3 358 354 350 347 351 356 359 357 1 7 11 7 2 359 355 353 347 340 334 330 327 323 320 317 315 312 307 301 296
306 302 299 298 299 302 305 310 318 326 327 322 316 316 323 341 26 49 55 52 51 59 70 75 74 73 73 74 73 70 67 63 58 52 45 35 25 14 3 352 345 339 336 335 339 343 345 339 338 354 12 6 351 344 342 339 335 330 327 325 323 321 320 319 318 316 312 307 303
320 318 317 317 318 320 324 329 335 337 334 326 323 323 326 332 1 35 54 54 47 49 60 72 73 71 69 71 73 74 73 71 69 65 57 44 24 4 347 333 322 317 315 317 320 319 313 298 276 246 223 265 297 307 312 315 316 316 316 316 316 316 316 316 317 316 314 311 307
339 339 340 339 337 336 334 333 331 327 322 317 316 317 319 321 336 5 50 66 64 63 66 71 72 71 68 66 70 74 79 82 87 91 90 83 37 329 307 297 289 285 283 287 290 290 286 275 255 230 210 208 223 242 261 277 288 295 300 304 307 309 311 312 314 314 314 313 310
349 349 348 346 343 339 335 329 323 315 309 304 303 304 308 313 323 334 5 41 60 63 59 55 56 61 66 66 66 75 93 118 137 150 158 165 192 233 257 264 264 262 260 259 262 263 263 261 252 238 221 211 213 219 229 242 259 272 283 292 299 303 306 308 310 312 313 314 312
346 345 343 341 338 335 332 327 321 315 308 299 291 286 293 312 328 339 353 360 1 2 6 10 16 28 48 68 71 98 151 174 182 186 189 190 201 221 239 250 253 253 251 250 251 252 253 252 248 240 230 218 216 218 222 229 245 262 277 289 297 301 303 305 307 309 311 312 312
340 338 336 334 332 330 328 326 322 318 313 305 293 286 293 332 344 348 350 348 343 347 352 356 359 5 17 60 141 207 215 207 199 199 202 202 212 227 238 244 248 249 249 249 251 253 254 254 250 243 233 221 217 218 222 230 251 275 287 295 300 301 303 304 306 309 310 311 311
335 333 331 329 328 326 325 323 321 319 316 311 303 299 309 341 350 3 17 355 349 351 354 354 346 329 285 236 221 226 229 224 212 209 211 213 224 233 239 242 245 249 252 255 258 260 261 261 255 247 235 221 215 210 208 221 280 301 305 307 306 305 305 306 308 309 310 310 309
330 328 327 326 324 323 321 320 319 317 316 315 313 316 333 349 8 106 117 54 356 353 348 331 297 265 242 227 221 224 230 232 226 223 222 224 235 242 244 245 247 252 258 265 268 270 272 273 268 257 244 227 211 188 159 118 325 319 316 315 312 310 309 308 309 309 309 308 307
325 324 323 322 321 320 319 318 317 317 319 321 327 338 353 354 122 125 115 92 37 348 317 290 268 254 241 227 220 220 227 238 245 248 249 247 252 256 258 255 247 247 252 258 263 273 286 295 294 286 271 226 158 116 92 66 353 330 324 320 316 314 311 310 309 308 308 307 306
321 320 320 319 319 319 319 319 320 323 328 334 345 355 6 33 115 112 99 80 46 319 279 267 260 253 245 234 225 221 223 235 254 271 281 285 281 279 279 271 228 215 225 242 272 308 331 331 328 338 18 82 88 84 68 40 355 334 326 321 318 315 312 310 309 309 308 308 307
321 320 321 321 321 321 322 323 328 334 340 348 357 5 16 49 78 80 75 69 56 306 265 260 259 256 252 244 235 227 224 228 250 276 295 304 305 308 306 283 224 209 213 288 21 38 56 82 93 98 99 99 86 67 37 8 344 331 324 319 315 314 313 312 312 312 311 309 308
325 325 325 325 325 325 326 329 336 343 351 359 12 25 37 46 44 46 49 52 22 270 261 260 260 260 257 249 247 249 254 252 260 278 293 302 312 318 317 286 261 227 117 89 77 79 85 95 106 112 115 114 94 60 15 340 330 325 320 313 311 311 312 314 315 314 314 311 309
329 328 327 327 327 327 329 334 340 350 3 18 38 52 60 59 51 42 32 0 274 263 262 263 263 259 252 244 263 288 293 289 288 290 290 290 297 303 299 290 281 232 129 123 121 120 119 119 122 123 125 126 122 114 29 317 314 311 307 303 303 305 309 311 313 314 315 314 312
330 329 329 330 330 330 331 333 339 355 20 46 63 69 72 70 66 50 292 263 261 263 266 269 264 259 254 270 288 289 289 290 294 297 298 293 197 243 281 295 295 219 143 141 147 149 149 150 149 147 144 142 140 146 169 258 283 286 287 287 292 298 304 309 313 315 316 316 315
330 330 332 334 334 334 333 332 339 1 35 59 67 71 73 75 79 251 255 257 261 263 265 265 266 277 299 309 297 294 295 298 300 309 338 17 5 333 307 304 311 329 139 150 163 169 172 174 173 171 166 157 152 156 179 216 245 258 265 270 278 289 300 309 314 317 319 320 321
332 334 336 338 338 338 339 341 355 16 39 53 62 69 78 117 238 250 255 259 258 256 255 260 284 307 314 307 307 312 317 317 324 344 4 9 355 337 319 316 325 353 132 156 179 188 192 193 192 192 188 178 172 178 199 217 230 241 251 259 269 282 296 308 315 320 324 327 328
335 337 340 340 342 345 352 2 19 36 51 63 73 93 156 227 244 251 255 253 252 254 263 285 311 317 317 318 328 333 335 336 342 351 359 3 354 341 330 330 336 354 100 164 192 202 207 208 207 207 205 199 196 201 213 224 229 233 238 246 258 273 292 309 320 326 331 333 333
336 339 341 341 345 353 3 16 35 59 82 106 135 199 233 249 255 257 255 253 259 275 297 318 327 331 333 339 342 342 341 341 342 345 351 7 8 0 352 348 347 355 18 180 204 211 217 219 219 218 216 212 212 215 222 230 232 232 233 236 245 259 280 306 323 331 335 337 335
336 338 341 343 349 353 355 353 358 18 139 189 239 261 271 274 272 272 273 277 290 307 323 332 340 344 345 345 343 340 338 337 338 342 355 22 31 25 12 359 352 353 353 239 214 217 222 226 227 227 226 224 224 225 228 235 237 237 236 236 240 247 261 291 318 330 333 334 331
335 336 340 347 350 346 336 321 311 301 288 281 284 292 300 304 304 307 310 310 316 326 337 345 349 349 346 343 341 338 336 337 342 351 8 28 34 28 16 356 342 339 338 301 231 226 228 232 233 234 234 232 232 232 235 243 249 251 251 250 252 255 261 276 305 316 321 323 321
336 336 340 346 344 335 322 309 302 297 295 301 332 347 345 336 333 331 327 323 330 341 349 350 349 347 344 340 339 339 342 346 353 2 14 26 28 20 6 343 325 322 322 314 268 246 239 237 238 239 239 237 235 235 240 251 260 266 267 267 273 277 279 283 290 296 300 305 307
341 342 343 344 338 328 317 309 310 314 322 339 356 0 356 348 340 334 330 332 344 349 350 347 346 344 341 339 341 346 354 1 5 9 13 20 21 10 352 332 318 314 314 314 300 281 263 250 247 246 245 242 238 238 244 255 266 273 279 283 282 280 278 278 280 283 287 293 297
350 352 353 351 345 339 333 332 337 340 342 342 346 349 350 347 340 336 336 344 349 348 346 343 342 340 339 341 349 357 6 13 17 14 9 8 8 358 343 328 317 312 310 311 307 300 291 283 280 275 267 245 234 232 241 254 267 279 286 287 282 278 275 274 278 285 292 297 298
358 3 7 7 4 0 356 353 348 341 336 333 336 341 346 348 344 341 341 347 347 345 342 339 336 337 341 350 360 5 8 12 18 16 8 359 354 347 339 331 320 313 310 310 308 306 306 312 320 327 330 301 234 226 237 258 277 288 293 294 292 290 290 292 301 307 309 309 311
359 6 13 16 12 6 358 351 342 336 333 334 338 342 346 348 345 342 341 344 344 341 337 332 332 339 350 5 11 10 7 6 12 14 9 356 346 344 343 337 326 318 314 313 312 317 329 348 357 2 5 7 329 248 263 292 306 311 312 314 317 318 319 322 326 326 321 314 315
355 1 5 7 3 357 352 347 344 341 341 342 343 344 344 343 340 338 338 339 338 334 330 327 333 345 0 15 18 14 9 5 7 8 6 357 350 349 349 343 333 325 320 319 324 342 4 17 16 16 17 21 13 355 342 339 339 339 341 343 344 341 336 334 332 328 321 314 313
348 351 353 354 353 351 350 350 347 345 343 342 341 339 336 334 331 330 330 329 326 323 323 327 341 355 8 19 24 22 17 10 5 3 2 359 357 355 353 347 339 333 328 328 343 9 25 26 22 21 24 29 23 12 3 1 359 357 354 352 350 343 336 330 325 319 314 309 305